Theta_e
319 329 333 335 339 342 350 350 348 351 352 346 345 350 354 352 351 354 343 337 348 344 345 346 344 344 342 344 346 345 345 345 341 333 329 328 326 326 325 327 330 331 328 324 322 322 322 322 322
318 323 333 331 342 346 352 347 347 345 351 347 348 347 353 355 348 345 342 346 341 341 341 342 343 345 345 345 345 344 344 343 337 332 329 328 326 324 325 330 333 330 326 323 323 323 323 322 322
318 323 319 335 338 348 350 347 345 344 344 347 347 346 346 353 343 340 346 347 345 346 345 342 342 343 344 344 343 343 342 339 335 333 335 333 326 324 326 331 335 330 324 323 323 324 324 323 321
324 321 321 335 344 344 345 345 342 342 342 344 345 349 349 349 349 347 348 348 346 346 346 343 340 340 341 341 341 341 339 336 335 337 337 335 328 327 329 330 332 324 322 322 323 323 324 323 322
326 316 335 341 342 342 342 339 339 345 344 347 344 353 354 350 348 346 347 345 344 344 342 341 341 342 343 343 340 339 337 334 332 334 335 333 328 326 326 325 324 322 321 321 322 323 324 323 322
319 316 333 341 341 339 338 337 339 343 346 346 348 350 348 348 349 347 345 342 340 341 340 340 341 341 342 342 339 337 334 331 331 331 333 332 329 327 324 322 321 321 321 321 322 322 324 324 323
319 316 333 339 343 344 342 339 340 344 337 345 343 351 347 345 345 346 346 345 344 342 340 339 340 339 339 339 337 335 332 329 328 329 328 327 327 327 325 323 322 321 321 321 322 322 323 325 325
317 318 340 340 344 344 338 340 341 342 342 337 342 351 348 340 338 337 336 337 341 344 344 342 341 340 338 336 335 331 330 329 328 328 330 331 331 330 329 327 325 326 326 324 323 323 324 327 327
318 321 339 343 346 346 339 345 344 345 345 342 341 343 340 338 336 335 335 335 335 337 336 338 341 340 337 335 335 334 335 331 329 330 333 332 331 329 329 328 327 332 330 328 325 325 326 327 326
319 327 337 339 342 340 342 343 348 348 347 346 343 338 337 336 335 334 334 333 334 334 334 334 337 338 336 336 333 333 333 332 330 332 332 331 331 333 332 330 330 330 330 332 328 327 327 325 324
338 340 346 344 343 340 336 340 343 345 346 343 341 338 336 335 335 333 334 334 333 333 333 333 333 333 331 330 330 330 330 330 331 331 331 331 330 330 331 331 330 330 331 332 331 328 328 327 324
349 347 347 341 341 342 345 341 343 342 341 337 336 335 333 332 332 332 331 330 327 327 328 331 332 332 331 331 330 331 330 330 329 329 328 327 326 325 327 329 330 331 331 331 329 327 327 328 322
343 344 344 344 342 341 340 342 343 341 336 334 334 333 332 330 329 328 328 328 327 326 325 323 322 324 325 327 327 324 323 327 327 325 324 322 322 322 323 325 327 328 327 327 326 325 324 323 324
338 340 343 342 342 340 341 342 340 338 334 334 332 331 330 328 326 326 325 323 324 325 323 321 322 320 318 321 323 323 322 320 321 320 318 317 316 316 316 317 320 322 323 323 323 323 323 323 323
336 337 342 344 342 343 339 343 342 336 334 333 332 330 327 326 325 325 325 324 321 320 320 320 319 317 316 316 317 320 316 320 323 321 320 318 314 316 316 317 316 317 317 316 317 320 321 320 320
332 336 336 333 339 336 336 342 341 334 334 333 331 329 326 325 324 325 324 323 322 322 319 317 316 315 314 316 315 314 314 314 316 322 321 318 314 313 313 314 314 315 317 319 319 319 319 318 318
331 335 336 336 335 335 337 346 338 334 334 334 330 327 325 323 324 325 323 323 322 321 320 319 317 316 314 315 313 314 314 315 321 322 320 319 317 315 313 312 312 312 314 315 317 319 320 319 318
335 336 336 337 335 334 341 340 336 333 335 333 330 327 325 325 324 324 324 323 323 321 320 320 318 316 315 315 313 313 313 313 313 314 313 312 311 311 312 312 311 311 312 315 314 316 317 318 319
334 334 335 335 337 331 331 333 334 333 334 332 331 329 326 325 325 325 325 324 322 323 321 319 317 316 315 313 313 313 312 313 313 313 313 313 312 313 312 310 311 311 313 313 314 315 315 315 317
334 337 337 336 335 336 338 337 336 336 335 332 330 327 327 326 326 327 325 323 323 321 320 318 317 314 312 312 313 312 312 312 313 312 312 313 312 313 312 312 312 311 313 313 314 314 314 315 316
327 328 329 336 334 333 335 339 339 337 335 334 331 329 328 328 325 322 321 320 321 319 320 315 313 312 312 312 312 311 310 309 311 311 311 311 312 312 312 312 312 313 313 313 313 314 314 315 315
325 326 326 330 331 339 334 345 337 333 335 336 332 329 327 327 323 320 319 320 319 315 314 313 313 312 313 312 311 310 311 311 310 310 310 309 310 311 310 310 310 312 312 313 313 314 314 316 315
327 327 326 327 325 332 337 341 340 332 338 337 332 330 325 323 320 319 321 319 315 317 313 312 311 311 311 311 310 309 309 309 309 308 307 307 308 311 310 309 310 311 312 313 314 314 314 315 316
326 324 323 319 323 337 335 336 334 337 337 333 328 326 322 321 321 321 321 313 312 312 312 311 311 311 309 309 309 307 307 307 307 306 306 307 308 308 309 309 311 312 312 312 313 313 314 314 315
322 321 322 322 330 342 335 335 332 335 335 329 325 323 322 321 320 314 312 312 311 310 309 309 310 309 309 309 308 307 306 306 307 306 306 306 306 308 309 310 311 311 311 310 311 312 313 313 314
325 322 323 328 324 340 334 341 335 333 330 326 325 322 320 316 310 310 310 311 309 309 308 308 309 309 308 308 307 306 306 307 306 305 305 305 306 309 309 310 310 310 311 309 310 313 314 314 314
325 326 323 323 327 337 337 336 334 333 331 327 322 322 314 310 309 309 309 310 309 308 308 308 308 309 307 308 307 307 307 306 306 305 305 306 308 308 308 308 309 309 310 309 310 311 312 313 313
324 324 326 325 332 341 335 333 337 335 331 325 323 319 312 309 308 307 308 307 307 308 307 308 309 309 308 307 307 307 306 306 306 306 306 306 308 308 308 309 309 310 310 310 310 311 311 312 313
323 324 324 326 329 333 336 337 329 329 327 324 320 316 310 308 307 306 307 307 308 308 308 309 309 309 308 309 308 307 307 307 307 306 306 307 307 308 308 308 309 309 309 309 309 309 310 311 311
322 324 323 324 331 328 329 334 325 324 321 316 316 310 308 307 305 306 306 308 308 308 309 309 309 308 309 308 307 308 308 307 307 307 307 307 307 307 308 308 308 307 307 308 309 309 309 309 310
Wind_Speed
5 3 1 5 5 6 4 6 7 8 13 15 18 13 13 12 4 11 5 12 17 16 14 15 15 15 16 15 14 12 12 11 10 13 15 16 17 18 19 20 21 20 20 20 21 21 21 20 18
2 2 2 3 4 5 2 4 8 7 10 13 13 14 17 13 8 10 11 16 18 17 16 15 15 14 15 14 12 11 10 10 11 12 15 15 16 18 18 18 18 18 18 19 19 19 20 20 19
2 2 3 4 4 6 3 6 9 9 12 7 6 11 6 12 13 20 16 23 21 19 16 15 14 13 13 12 11 10 9 10 12 13 14 14 15 16 16 16 15 15 16 17 17 18 19 19 19
2 4 4 5 10 5 11 9 3 6 7 9 1 9 7 14 8 19 27 24 22 19 16 14 14 14 13 12 11 9 9 10 12 13 14 14 14 15 14 13 13 13 14 14 14 15 16 17 17
3 3 6 5 4 3 2 4 4 7 4 1 14 11 7 26 30 25 27 23 21 18 15 14 13 12 12 11 9 7 8 10 11 12 13 13 13 12 11 10 9 9 9 10 11 12 13 14 15
3 4 5 3 3 7 1 2 2 4 5 13 17 13 6 20 28 26 25 23 21 19 16 15 12 11 10 9 8 7 7 9 9 10 11 12 11 11 9 8 6 6 5 5 7 9 9 9 13
4 4 5 4 3 6 5 5 4 3 5 8 3 7 6 19 22 23 23 21 20 18 16 14 12 10 9 10 10 9 8 7 8 8 8 9 9 8 7 6 5 4 3 1 4 6 6 6 6
5 5 6 4 1 4 1 4 7 7 8 1 7 5 6 16 28 33 32 31 26 17 16 15 13 12 9 9 9 9 7 6 5 5 5 4 4 5 5 5 5 3 3 0 2 4 4 4 3
4 4 6 8 9 7 3 3 2 2 9 14 8 18 20 17 24 29 30 30 30 31 26 18 12 11 10 10 9 9 8 6 4 3 2 4 4 5 6 8 8 6 4 3 3 2 3 1 3
5 5 4 5 5 7 7 1 3 5 14 12 12 21 22 23 22 23 23 23 26 28 25 24 19 15 13 11 10 8 7 4 7 3 1 3 3 3 7 10 11 9 11 10 8 6 4 3 4
5 5 14 8 20 15 5 4 7 9 8 9 10 14 20 22 21 21 21 20 26 23 23 20 19 17 17 17 13 13 11 9 8 7 5 3 3 1 3 8 11 11 12 11 7 5 6 4 6
20 14 9 12 15 10 6 6 12 14 8 13 13 17 20 18 18 17 19 21 24 23 19 16 16 16 15 13 13 13 10 8 7 6 6 6 6 5 5 4 2 4 9 8 8 13 14 13 8
29 12 13 17 16 13 16 12 12 15 14 16 17 20 16 16 16 17 22 21 20 23 21 21 19 17 14 12 11 12 13 11 11 10 8 7 8 7 5 3 2 5 4 5 5 8 10 13 15
13 21 21 17 17 17 15 15 5 12 14 13 13 12 12 14 13 17 18 18 18 17 17 18 17 16 16 15 14 13 14 14 10 9 9 8 10 10 9 5 2 5 7 9 11 13 16 17 16
16 15 15 17 18 8 23 10 11 14 14 15 12 10 10 12 12 12 13 15 16 15 13 14 13 14 15 16 17 14 16 13 11 9 7 7 9 9 8 7 9 10 10 8 8 9 10 12 13
3 6 4 8 10 4 4 8 16 16 15 7 9 8 6 6 8 11 11 10 10 11 12 12 12 13 11 11 15 17 21 18 13 10 6 5 6 9 10 10 10 11 11 9 10 9 10 12 13
7 3 3 6 6 7 7 13 14 13 14 12 10 8 4 3 6 7 7 6 6 7 7 7 10 12 13 13 14 16 18 19 11 2 6 6 6 8 9 11 13 14 12 10 11 10 12 13 10
5 3 1 4 4 21 22 21 12 6 7 9 8 8 6 5 3 3 3 2 2 3 3 3 5 10 13 11 14 14 14 15 11 11 7 8 9 10 13 13 13 14 13 10 11 9 9 12 13
5 4 6 6 7 18 19 17 10 7 9 7 7 7 6 4 4 5 4 4 4 3 1 4 6 9 10 14 13 13 16 15 9 13 8 10 11 10 12 14 12 13 12 11 9 8 8 11 11
6 3 5 16 24 22 15 11 6 8 7 6 7 6 7 3 2 4 2 1 2 3 3 7 7 8 11 13 12 14 17 17 8 14 10 11 12 9 11 11 12 13 11 10 8 7 7 8 7
3 3 2 14 17 20 24 9 5 5 5 5 7 4 5 4 4 3 1 4 5 4 5 6 9 14 14 14 15 16 16 16 17 17 14 12 10 11 12 12 13 11 11 10 10 9 7 7 7
8 5 7 15 8 5 9 5 3 0 2 10 8 6 5 5 2 2 5 3 4 8 9 11 12 13 12 13 15 13 13 13 15 16 15 14 13 12 14 13 12 11 10 9 7 6 6 6 5
2 2 5 4 7 6 6 5 2 4 3 6 7 6 6 6 7 2 2 10 13 8 11 9 10 12 13 15 15 15 15 14 14 17 17 17 14 10 12 12 10 9 8 6 5 4 2 1 4
1 9 9 5 5 5 8 4 3 2 6 6 5 7 7 6 6 4 5 13 16 15 13 14 14 17 16 15 14 15 14 16 18 17 17 16 14 11 10 10 7 6 8 8 7 5 4 3 3
12 8 4 5 5 2 4 7 3 4 6 7 9 7 5 4 3 10 12 16 16 16 17 17 17 16 16 13 14 15 16 14 13 15 15 16 16 16 13 7 5 7 10 11 8 8 5 4 3
5 6 5 2 3 4 5 3 2 1 8 7 6 6 4 7 8 9 11 14 13 13 15 14 14 14 15 14 16 17 16 15 14 16 14 12 14 12 15 12 11 11 11 11 10 12 13 10 9
4 3 2 4 5 5 1 1 3 7 7 8 7 6 7 7 7 9 14 10 10 11 10 12 13 11 16 16 15 15 17 17 16 16 13 12 11 13 14 14 13 13 11 12 13 13 13 11 12
6 2 5 4 2 3 2 1 1 8 9 7 8 7 7 5 6 8 11 10 10 9 12 14 12 9 13 20 15 17 17 15 15 16 16 15 13 17 14 12 13 12 11 12 12 12 12 14 11
6 5 5 5 3 4 4 2 5 6 7 9 7 6 9 7 6 7 8 8 9 11 13 13 15 15 12 16 18 20 17 18 14 15 14 14 13 13 12 12 11 10 11 10 10 11 12 14 15
4 4 4 5 1 3 4 1 4 11 9 8 8 9 7 7 6 9 8 8 10 12 13 14 16 14 15 16 15 17 17 19 16 14 13 12 12 11 9 9 8 8 8 8 11 11 10 11 13
Wind_Direction
297 51 322 110 52 69 44 344 311 49 60 70 76 82 72 51 33 120 171 158 146 135 129 125 116 114 119 123 122 119 115 106 102 108 110 111 109 106 107 107 102 97 93 88 83 75 69 64 64
319 355 61 72 78 61 33 314 341 328 102 92 86 95 79 79 73 106 127 154 155 135 129 122 117 116 121 125 123 122 116 112 114 118 119 119 115 114 114 111 103 98 93 87 79 70 63 60 56
320 175 78 100 79 87 29 318 328 350 356 4 83 55 67 119 124 148 148 146 140 131 126 121 119 118 122 125 127 125 120 122 123 122 122 123 121 119 118 115 105 100 95 86 75 65 61 58 55
124 33 33 64 99 133 165 239 290 333 340 338 174 58 45 109 107 132 139 138 132 124 119 116 121 125 128 124 122 118 115 122 125 128 131 129 127 126 125 118 108 106 97 84 73 63 61 59 58
57 52 49 71 82 90 31 80 2 65 157 94 77 85 78 89 113 122 129 130 123 120 115 113 114 119 121 125 117 113 120 128 132 135 136 137 136 133 130 124 118 116 100 86 71 59 55 57 58
38 99 75 93 129 139 78 65 231 198 120 112 81 86 60 118 115 119 115 115 113 114 114 114 112 113 114 114 105 109 117 126 133 139 142 146 146 145 143 144 137 133 127 95 70 49 42 53 54
122 80 104 126 126 34 32 339 274 183 55 31 57 89 98 91 103 108 108 106 109 106 103 98 100 103 108 107 106 112 117 121 128 138 148 155 162 163 167 171 175 173 162 117 58 33 30 49 47
119 89 120 126 187 52 244 225 308 23 57 94 16 114 95 62 79 91 86 80 93 102 93 90 84 79 100 101 98 100 103 107 112 125 144 163 178 193 205 221 232 234 212 205 358 6 13 18 89
131 75 130 153 138 216 200 181 293 30 76 49 54 66 81 73 85 81 73 68 70 73 71 77 96 85 92 87 91 92 92 94 107 116 159 208 227 224 236 242 240 237 250 282 273 296 328 15 127
86 94 63 185 95 126 122 3 78 91 88 79 69 68 70 70 68 66 65 63 61 64 68 67 76 84 79 84 93 100 103 91 63 103 202 262 269 322 246 264 256 235 227 227 232 236 216 202 270
354 107 113 75 115 119 115 73 16 111 71 61 91 82 73 65 61 63 64 72 72 72 71 69 75 75 82 77 87 78 79 81 82 89 80 77 74 26 277 273 267 221 217 231 241 218 227 267 272
90 66 95 122 109 111 108 78 71 64 78 86 84 81 79 69 63 66 66 64 73 74 72 70 67 70 71 75 70 66 57 40 40 39 26 21 33 38 31 27 351 240 250 251 217 258 240 242 248
106 112 119 129 121 126 125 113 98 83 91 80 82 75 75 76 77 73 80 80 78 73 68 64 59 55 53 52 43 39 24 5 4 354 356 354 2 13 10 7 326 272 270 265 261 240 240 254 265
153 133 129 139 140 125 108 125 90 108 100 80 64 65 71 73 68 81 81 75 74 73 65 58 53 51 41 29 18 6 6 5 352 3 17 46 41 32 23 15 340 285 280 277 276 276 275 276 281
157 121 132 153 151 131 127 72 93 106 81 78 68 54 56 66 71 65 73 70 78 70 63 61 51 40 34 29 37 33 14 344 314 323 343 21 35 34 25 16 6 354 336 313 298 295 295 292 290
211 73 39 168 147 94 317 99 103 103 85 74 91 76 64 50 80 88 87 92 87 82 67 57 44 35 20 29 26 10 359 346 352 285 304 349 19 18 359 352 347 353 341 319 314 309 306 304 288
2 141 179 19 64 104 93 130 112 114 127 159 132 119 106 58 93 116 106 101 92 80 60 57 36 31 24 33 22 14 357 12 14 331 315 322 337 344 334 331 333 337 333 331 327 312 303 306 311
224 153 315 160 67 90 100 109 104 124 135 146 145 140 148 161 186 137 149 193 171 131 84 75 51 36 36 34 13 360 357 13 14 26 22 22 350 328 321 336 336 334 335 332 333 338 325 312 315
150 115 208 76 100 68 94 116 120 149 179 142 127 151 162 183 184 223 218 262 240 156 118 49 40 41 20 5 1 358 353 352 353 359 343 339 336 321 320 330 331 340 333 328 328 342 330 317 312
116 97 93 60 87 98 116 118 137 172 159 157 153 160 163 150 240 279 285 200 99 137 59 64 73 34 15 7 3 356 350 350 2 346 343 328 330 327 339 345 331 330 328 332 319 308 303 297 312
125 131 52 129 90 124 125 88 99 74 108 141 158 162 136 98 76 105 42 50 111 75 102 85 46 25 16 1 0 356 347 348 356 2 1 4 11 4 352 351 339 334 331 332 327 314 296 298 314
41 326 37 127 166 185 211 120 95 131 41 117 88 94 120 122 150 261 335 24 54 84 64 54 38 18 18 5 0 13 13 2 356 351 351 356 4 344 342 332 333 332 333 335 336 325 305 290 279
162 346 32 57 71 116 38 90 96 198 92 116 123 164 181 153 185 268 342 46 58 109 66 47 39 33 27 19 11 9 9 4 355 348 341 338 343 345 342 341 343 341 340 350 351 347 360 264 188
114 39 35 46 85 55 321 115 312 243 155 156 178 209 166 202 210 226 81 88 72 65 56 34 28 22 25 16 4 10 14 4 356 354 353 351 347 341 335 337 355 21 44 30 28 19 27 47 164
56 50 3 4 29 81 297 54 215 226 188 170 174 183 173 161 73 71 76 68 62 48 36 26 19 18 10 7 8 7 356 358 359 356 353 348 351 349 345 346 27 56 53 26 34 32 21 37 95
77 125 140 265 189 175 16 82 211 158 107 139 143 127 137 64 95 97 85 87 67 50 38 29 11 12 24 18 11 14 21 9 5 0 353 350 357 10 16 37 55 59 51 41 51 55 59 69 96
336 27 175 128 65 85 119 89 121 116 130 122 119 126 96 109 100 81 87 85 66 46 30 30 29 37 22 13 7 10 15 12 9 6 8 14 17 28 36 42 52 51 44 47 43 52 57 71 79
100 238 28 10 86 96 68 292 188 156 171 140 146 135 142 116 107 93 90 65 57 55 32 36 40 31 26 21 21 19 18 12 16 20 26 25 35 32 29 35 48 49 54 50 45 48 56 68 79
20 26 57 108 79 141 150 259 229 178 161 158 163 128 141 133 120 110 82 61 51 43 44 38 36 24 18 17 26 24 20 20 21 24 28 31 28 29 34 37 55 56 54 54 59 56 60 82 79
94 105 104 114 41 63 112 6 139 134 155 149 144 124 128 132 126 116 82 67 50 45 37 46 32 38 28 22 21 22 21 24 26 29 26 29 31 32 37 46 64 43 39 52 62 62 74 80 81